Starlink 35191

operational
NORAD ID: 65594 Int'l Des: 2025-207 Owner: SPXS Country: US Constellation: starlink
NOTLE

Starlink 35191について

説明を読み込み中...

リアルタイム位置

3D地球を読み込み中...

次回通過

高度履歴

Altitude vs Time

uPlot chart will show altitude changes over time

軌道要素

1 65594U 25207C 25308.63103386 .00059167 00000-0 15090-2 0 9998
2 65594 97.6045 12.9069 0001793 89.3896 270.7555 15.39312870 9113
Epoch: Nov 4, 2025 • Age: 19 hours

現在のステータス

高度 452.3 km
速度 7.65 km/s
衛星直下点 37.61°N, 172.52°E
打ち上げ日 Sep 13, 2025
運用期間 0.1 years
タイプ internet

技術仕様

分類 Payload
質量 575.00 kg
乾燥質量 530.00 kg
総質量 575.00 kg
長さ 0.30 m
直径 4.10 m
スパン 29.00 m
形状 Box + pan
製造者 SPXS
バスタイプ Starlink V2MO
フェーズステータス In Orbit
所有者/国 SPXS/US

大規模コンステレーション

Loading constellations...